Kuiper-00261

operational
NORAD ID: 67158 Int'l Des: 2025-301 Owner: KUIP Country: US Constellation: kuiper
LEOCIRCULAR

Über Kuiper-00261

Beschreibung wird geladen...

Live-Position

3D-Globus wird geladen...

Nächste Überflüge

Höhenverlauf

Altitude vs Time

uPlot chart will show altitude changes over time

Zweizeiliger Elementsatz

1 67158C 25301AB 25350.77908565 .00015274 00000+0 43635-3 0 3503
2 67158 51.8687 105.6425 0005486 102.0808 111.3705 15.35379198 19
Epoch: 16. Dez. 2025 • Age: 65 hours

Aktueller Status

Höhe 457.4 km
Geschwindigkeit 7.64 km/s
Subsatellitenpunkt 14.72°N, 83.15°W
Startdatum 16. Dez. 2025
Alter 2 days
Typ internet

Technische Details

Klassifizierung Payload
Masse 490.00 kg
Trockenmasse 490.00 kg
Gesamtmasse 490.00 kg
Länge 1.80 m
Durchmesser 0.70 m
Spannweite 5.00 m
Form Box + 2 pan
Hersteller KUIP
Bus-Typ Kuiper
Phasenstatus In Orbit
Besitzer/Staat KUIP/US

Große Konstellationen

Loading constellations...